Time,TemperatureF,DewpointF,PressureIn,WindDirection,WindDirectionDegrees,WindSpeedMPH,WindSpeedGustMPH,Humidity,HourlyPrecipIn,Conditions,Clouds,dailyrainin,SoftwareType,DateUTC
2013-08-31 00:01:00,76.6,53.0,29.94,SE,133,0.0,0.0,44,0.00,,,0.00,WeatherCatV1.02B3,2013-08-31 04:01:00,
2013-08-31 00:06:00,76.5,52.9,29.94,SE,133,0.0,0.0,44,0.00,,,0.00,WeatherCatV1.02B3,2013-08-31 04:06:00,
2013-08-31 00:11:00,76.5,52.9,29.94,SE,133,0.0,0.0,44,0.00,,,0.00,WeatherCatV1.02B3,2013-08-31 04:11:00,
2013-08-31 00:16:00,76.4,52.9,29.94,SE,133,0.0,0.0,44,0.00,,,0.00,WeatherCatV1.02B3,2013-08-31 04:16:00,
2013-08-31 00:21:00,76.5,52.3,29.94,SE,133,0.0,0.0,43,0.00,,,0.00,WeatherCatV1.02B3,2013-08-31 04:21:00,
2013-08-31 00:26:00,76.5,52.3,29.94,SE,133,0.0,0.0,43,0.00,,,0.00,WeatherCatV1.02B3,2013-08-31 04:26:00,
2013-08-31 00:31:00,76.5,52.3,29.94,SE,133,0.0,0.0,43,0.00,,,0.00,WeatherCatV1.02B3,2013-08-31 04:31:00,
2013-08-31 00:36:00,76.4,52.2,29.94,SE,133,0.0,0.0,43,0.00,,,0.00,WeatherCatV1.02B3,2013-08-31 04:36:00,
2013-08-31 00:41:00,76.4,51.6,29.94,SE,133,0.0,0.0,42,0.00,,,0.00,WeatherCatV1.02B3,2013-08-31 04:41:00,
2013-08-31 00:46:00,76.5,51.7,29.94,SE,133,0.0,0.0,42,0.00,,,0.00,WeatherCatV1.02B3,2013-08-31 04:46:00,
2013-08-31 00:51:00,76.5,51.7,29.94,SE,133,0.0,0.0,42,0.00,,,0.00,WeatherCatV1.02B3,2013-08-31 04:51:00,
2013-08-31 00:56:00,76.6,51.1,29.94,SE,133,0.0,2.0,41,0.00,,,0.00,WeatherCatV1.02B3,2013-08-31 04:56:00,
2013-08-31 01:01:00,76.7,50.5,29.94,SE,133,0.0,0.0,40,0.00,,,0.00,WeatherCatV1.02B3,2013-08-31 05:01:00,
2013-08-31 01:06:00,76.8,50.6,29.93,SE,133,0.0,3.0,40,0.00,,,0.00,WeatherCatV1.02B3,2013-08-31 05:06:00,
2013-08-31 01:11:00,76.9,50.7,29.93,SE,133,0.0,0.0,40,0.00,,,0.00,WeatherCatV1.02B3,2013-08-31 05:11:00,
2013-08-31 01:16:00,77.0,50.8,29.93,SE,133,1.0,3.0,40,0.00,,,0.00,WeatherCatV1.02B3,2013-08-31 05:16:00,
2013-08-31 01:21:00,77.1,50.2,29.93,SE,133,0.0,4.0,39,0.00,,,0.00,WeatherCatV1.02B3,2013-08-31 05:21:00,
2013-08-31 01:26:00,77.2,50.3,29.93,SE,133,0.0,0.0,39,0.00,,,0.00,WeatherCatV1.02B3,2013-08-31 05:26:00,
2013-08-31 01:31:00,77.2,50.3,29.92,SE,133,0.0,0.0,39,0.00,,,0.00,WeatherCatV1.02B3,2013-08-31 05:31:00,
2013-08-31 01:36:00,77.3,50.4,29.92,SE,133,0.0,0.0,39,0.00,,,0.00,WeatherCatV1.02B3,2013-08-31 05:36:00,
2013-08-31 01:41:00,77.3,50.4,29.92,SE,133,0.0,0.0,39,0.00,,,0.00,WeatherCatV1.02B3,2013-08-31 05:41:00,
2013-08-31 01:46:00,77.3,50.4,29.91,SE,133,3.0,4.0,39,0.00,,,0.00,WeatherCatV1.02B3,2013-08-31 05:46:00,
2013-08-31 01:51:00,77.3,50.4,29.92,SE,133,4.0,7.0,39,0.00,,,0.00,WeatherCatV1.02B3,2013-08-31 05:51:00,
2013-08-31 01:56:00,77.3,50.4,29.91,SE,133,5.0,7.0,39,0.00,,,0.00,WeatherCatV1.02B3,2013-08-31 05:56:00,
2013-08-31 02:01:00,77.4,50.5,29.91,SE,133,5.0,10.0,39,0.00,,,0.00,WeatherCatV1.02B3,2013-08-31 06:01:00,
2013-08-31 02:06:00,77.5,50.6,29.91,ESE,111,6.0,12.0,39,0.00,,,0.00,WeatherCatV1.02B3,2013-08-31 06:06:00,
2013-08-31 02:11:00,77.5,50.6,29.91,ESE,110,5.0,5.0,39,0.00,,,0.00,WeatherCatV1.02B3,2013-08-31 06:11:00,
2013-08-31 02:16:00,77.6,50.0,29.91,ESE,104,5.0,7.0,38,0.00,,,0.00,WeatherCatV1.02B3,2013-08-31 06:16:00,
2013-08-31 02:21:00,77.6,50.0,29.91,East,99,4.0,10.0,38,0.00,,,0.00,WeatherCatV1.02B3,2013-08-31 06:21:00,
2013-08-31 02:26:00,77.6,50.0,29.90,ESE,102,3.0,9.0,38,0.00,,,0.00,WeatherCatV1.02B3,2013-08-31 06:26:00,
2013-08-31 02:31:00,77.7,50.0,29.90,East,100,5.0,9.0,38,0.00,,,0.00,WeatherCatV1.02B3,2013-08-31 06:31:00,
2013-08-31 02:36:00,77.6,50.0,29.90,East,101,6.0,11.0,38,0.00,,,0.00,WeatherCatV1.02B3,2013-08-31 06:36:00,
2013-08-31 02:41:00,77.7,50.0,29.90,East,100,0.0,3.0,38,0.00,,,0.00,WeatherCatV1.02B3,2013-08-31 06:41:00,
2013-08-31 02:46:00,77.7,50.0,29.90,East,100,3.0,7.0,38,0.00,,,0.00,WeatherCatV1.02B3,2013-08-31 06:46:00,
2013-08-31 02:51:00,77.8,50.1,29.90,East,99,2.0,5.0,38,0.00,,,0.00,WeatherCatV1.02B3,2013-08-31 06:51:00,
2013-08-31 02:56:00,77.7,50.0,29.90,East,98,4.0,5.0,38,0.00,,,0.00,WeatherCatV1.02B3,2013-08-31 06:56:00,
2013-08-31 03:01:00,77.7,50.0,29.90,East,97,7.0,7.0,38,0.00,,,0.00,WeatherCatV1.02B3,2013-08-31 07:01:00,
2013-08-31 03:06:00,77.7,50.7,29.90,East,98,2.0,6.0,39,0.00,,,0.00,WeatherCatV1.02B3,2013-08-31 07:06:00,
2013-08-31 03:11:00,77.7,50.7,29.90,East,98,3.0,7.0,39,0.00,,,0.00,WeatherCatV1.02B3,2013-08-31 07:11:00,
2013-08-31 03:16:00,77.7,50.7,29.90,East,98,0.0,0.0,39,0.00,,,0.00,WeatherCatV1.02B3,2013-08-31 07:16:00,
2013-08-31 03:21:00,77.7,50.7,29.90,East,98,0.0,5.0,39,0.00,,,0.00,WeatherCatV1.02B3,2013-08-31 07:21:00,
2013-08-31 03:26:00,77.8,50.8,29.90,East,98,5.0,5.0,39,0.00,,,0.00,WeatherCatV1.02B3,2013-08-31 07:26:00,
2013-08-31 03:31:00,77.8,50.8,29.90,East,98,2.0,4.0,39,0.00,,,0.00,WeatherCatV1.02B3,2013-08-31 07:31:00,
2013-08-31 03:36:00,77.8,50.8,29.90,East,98,1.0,4.0,39,0.00,,,0.00,WeatherCatV1.02B3,2013-08-31 07:36:00,
2013-08-31 03:41:00,77.8,50.8,29.90,East,98,2.0,2.0,39,0.00,,,0.00,WeatherCatV1.02B3,2013-08-31 07:41:00,
2013-08-31 03:46:00,77.8,50.8,29.90,East,98,0.0,1.0,39,0.00,,,0.00,WeatherCatV1.02B3,2013-08-31 07:46:00,
2013-08-31 03:51:00,77.8,50.8,29.90,East,98,0.0,2.0,39,0.00,,,0.00,WeatherCatV1.02B3,2013-08-31 07:51:00,
2013-08-31 03:56:00,77.8,50.8,29.90,East,98,5.0,5.0,39,0.00,,,0.00,WeatherCatV1.02B3,2013-08-31 07:56:00,
2013-08-31 04:01:00,77.8,50.8,29.90,East,98,5.0,7.0,39,0.00,,,0.00,WeatherCatV1.02B3,2013-08-31 08:01:00,
2013-08-31 04:06:00,77.8,50.8,29.90,East,98,0.0,0.0,39,0.00,,,0.00,WeatherCatV1.02B3,2013-08-31 08:06:00,
2013-08-31 04:11:00,77.8,50.8,29.90,East,98,0.0,0.0,39,0.00,,,0.00,WeatherCatV1.02B3,2013-08-31 08:11:00,
2013-08-31 04:16:00,77.8,50.8,29.90,East,98,0.0,0.0,39,0.00,,,0.00,WeatherCatV1.02B3,2013-08-31 08:16:00,
2013-08-31 04:21:00,77.7,50.7,29.90,East,98,0.0,0.0,39,0.00,,,0.00,WeatherCatV1.02B3,2013-08-31 08:21:00,
2013-08-31 04:26:00,77.7,50.7,29.90,East,98,0.0,0.0,39,0.00,,,0.00,WeatherCatV1.02B3,2013-08-31 08:26:00,
2013-08-31 04:31:00,77.7,50.7,29.90,East,98,0.0,1.0,39,0.00,,,0.00,WeatherCatV1.02B3,2013-08-31 08:31:00,
2013-08-31 04:36:00,77.6,50.7,29.90,East,98,0.0,3.0,39,0.00,,,0.00,WeatherCatV1.02B3,2013-08-31 08:36:00,
2013-08-31 04:41:00,77.6,50.7,29.90,East,98,0.0,0.0,39,0.00,,,0.00,WeatherCatV1.02B3,2013-08-31 08:41:00,
2013-08-31 04:46:00,77.6,50.7,29.90,East,98,0.0,0.0,39,0.00,,,0.00,WeatherCatV1.02B3,2013-08-31 08:46:00,
2013-08-31 04:51:00,77.6,50.7,29.91,East,98,0.0,0.0,39,0.00,,,0.00,WeatherCatV1.02B3,2013-08-31 08:51:00,
2013-08-31 04:56:00,77.6,50.7,29.90,East,98,0.0,2.0,39,0.00,,,0.00,WeatherCatV1.02B3,2013-08-31 08:56:00,
2013-08-31 05:01:00,77.6,50.7,29.90,East,98,2.0,2.0,39,0.00,,,0.00,WeatherCatV1.02B3,2013-08-31 09:01:00,
2013-08-31 05:06:00,77.6,50.7,29.90,East,98,0.0,0.0,39,0.00,,,0.00,WeatherCatV1.02B3,2013-08-31 09:06:00,
2013-08-31 05:11:00,77.7,50.7,29.90,East,98,0.0,0.0,39,0.00,,,0.00,WeatherCatV1.02B3,2013-08-31 09:11:00,
2013-08-31 05:16:00,77.8,50.8,29.91,East,98,0.0,0.0,39,0.00,,,0.00,WeatherCatV1.02B3,2013-08-31 09:16:00,
2013-08-31 05:21:00,77.6,50.7,29.91,East,98,0.0,1.0,39,0.00,,,0.00,WeatherCatV1.02B3,2013-08-31 09:21:00,
2013-08-31 05:26:00,77.6,50.7,29.91,East,98,0.0,3.0,39,0.00,,,0.01,WeatherCatV1.02B3,2013-08-31 09:26:00,
2013-08-31 05:31:00,77.6,50.0,29.91,East,98,0.0,0.0,38,0.00,,,0.01,WeatherCatV1.02B3,2013-08-31 09:31:00,
2013-08-31 05:36:00,77.5,49.9,29.91,East,98,0.0,2.0,38,0.00,,,0.01,WeatherCatV1.02B3,2013-08-31 09:36:00,
2013-08-31 05:41:00,77.5,49.9,29.91,East,98,0.0,0.0,38,0.00,,,0.01,WeatherCatV1.02B3,2013-08-31 09:41:00,
2013-08-31 05:46:00,77.6,50.7,29.91,East,98,0.0,1.0,39,0.00,,,0.01,WeatherCatV1.02B3,2013-08-31 09:46:00,
2013-08-31 05:51:00,77.2,50.3,29.91,East,98,0.0,0.0,39,0.00,,,0.01,WeatherCatV1.02B3,2013-08-31 09:51:00,
2013-08-31 05:56:00,77.1,50.2,29.91,East,98,0.0,0.0,39,0.00,,,0.01,WeatherCatV1.02B3,2013-08-31 09:56:00,
2013-08-31 06:01:00,77.0,50.1,29.91,East,98,0.0,0.0,39,0.00,,,0.01,WeatherCatV1.02B3,2013-08-31 10:01:00,
2013-08-31 06:06:00,77.0,50.1,29.91,East,98,0.0,0.0,39,0.00,,,0.01,WeatherCatV1.02B3,2013-08-31 10:06:00,
2013-08-31 06:11:00,77.0,50.1,29.91,East,98,0.0,0.0,39,0.00,,,0.01,WeatherCatV1.02B3,2013-08-31 10:11:00,
2013-08-31 06:16:00,77.3,50.4,29.92,East,98,0.0,0.0,39,0.00,,,0.01,WeatherCatV1.02B3,2013-08-31 10:16:00,
2013-08-31 06:21:00,77.3,50.4,29.92,East,98,0.0,0.0,39,0.00,,,0.01,WeatherCatV1.02B3,2013-08-31 10:21:00,
2013-08-31 06:26:00,77.2,50.3,29.92,East,98,0.0,0.0,39,0.00,,,0.01,WeatherCatV1.02B3,2013-08-31 10:26:00,
2013-08-31 06:31:00,77.1,50.2,29.92,East,98,0.0,1.0,39,0.00,,,0.01,WeatherCatV1.02B3,2013-08-31 10:31:00,
2013-08-31 06:36:00,77.1,50.2,29.92,East,98,0.0,0.0,39,0.00,,,0.01,WeatherCatV1.02B3,2013-08-31 10:36:00,
2013-08-31 06:41:00,77.1,50.2,29.92,East,98,0.0,0.0,39,0.00,,,0.01,WeatherCatV1.02B3,2013-08-31 10:41:00,
2013-08-31 06:46:00,77.0,50.1,29.93,East,98,0.0,0.0,39,0.00,,,0.01,WeatherCatV1.02B3,2013-08-31 10:46:00,
2013-08-31 06:51:00,76.9,50.0,29.93,East,98,0.0,0.0,39,0.00,,,0.01,WeatherCatV1.02B3,2013-08-31 10:51:00,
2013-08-31 06:56:00,76.9,50.0,29.93,East,98,0.0,0.0,39,0.00,,,0.01,WeatherCatV1.02B3,2013-08-31 10:56:00,
2013-08-31 07:01:00,76.9,50.0,29.93,East,98,0.0,0.0,39,0.00,,,0.01,WeatherCatV1.02B3,2013-08-31 11:01:00,
2013-08-31 07:06:00,76.8,49.9,29.94,East,98,0.0,2.0,39,0.00,,,0.01,WeatherCatV1.02B3,2013-08-31 11:06:00,
2013-08-31 07:11:00,76.8,49.9,29.94,East,98,0.0,0.0,39,0.00,,,0.01,WeatherCatV1.02B3,2013-08-31 11:11:00,
2013-08-31 07:16:00,76.8,49.2,29.94,East,98,0.0,2.0,38,0.00,,,0.01,WeatherCatV1.02B3,2013-08-31 11:16:00,
2013-08-31 07:21:00,76.8,49.2,29.94,East,98,0.0,2.0,38,0.00,,,0.01,WeatherCatV1.02B3,2013-08-31 11:21:00,
2013-08-31 07:26:00,76.9,49.3,29.94,East,98,0.0,0.0,38,0.00,,,0.01,WeatherCatV1.02B3,2013-08-31 11:26:00,
2013-08-31 07:31:00,76.9,49.3,29.94,East,98,0.0,0.0,38,0.00,,,0.01,WeatherCatV1.02B3,2013-08-31 11:31:00,
2013-08-31 07:36:00,76.9,49.3,29.94,East,98,0.0,0.0,38,0.00,,,0.01,WeatherCatV1.02B3,2013-08-31 11:36:00,
2013-08-31 07:41:00,76.9,49.3,29.94,East,98,0.0,3.0,38,0.00,,,0.01,WeatherCatV1.02B3,2013-08-31 11:41:00,
2013-08-31 07:46:00,77.0,48.7,29.94,East,98,2.0,4.0,37,0.00,,,0.01,WeatherCatV1.02B3,2013-08-31 11:46:00,
2013-08-31 07:51:00,77.1,48.8,29.94,East,98,2.0,4.0,37,0.00,,,0.01,WeatherCatV1.02B3,2013-08-31 11:51:00,
2013-08-31 07:56:00,77.2,48.9,29.94,East,98,2.0,6.0,37,0.00,,,0.01,WeatherCatV1.02B3,2013-08-31 11:56:00,
2013-08-31 08:01:00,77.3,49.0,29.94,East,98,5.0,10.0,37,0.00,,,0.01,WeatherCatV1.02B3,2013-08-31 12:01:00,
2013-08-31 08:06:00,77.5,49.2,29.95,East,98,7.0,8.0,37,0.00,,,0.01,WeatherCatV1.02B3,2013-08-31 12:06:00,
2013-08-31 08:11:00,77.8,48.7,29.95,East,98,4.0,7.0,36,0.00,,,0.01,WeatherCatV1.02B3,2013-08-31 12:11:00,
2013-08-31 08:16:00,77.9,48.8,29.95,East,98,4.0,7.0,36,0.00,,,0.01,WeatherCatV1.02B3,2013-08-31 12:16:00,
2013-08-31 08:21:00,78.0,48.9,29.95,East,98,5.0,9.0,36,0.00,,,0.01,WeatherCatV1.02B3,2013-08-31 12:21:00,
2013-08-31 08:26:00,78.2,49.0,29.95,East,98,2.0,6.0,36,0.00,,,0.01,WeatherCatV1.02B3,2013-08-31 12:26:00,
2013-08-31 08:31:00,78.4,49.2,29.96,East,98,4.0,9.0,36,0.00,,,0.01,WeatherCatV1.02B3,2013-08-31 12:31:00,
2013-08-31 08:36:00,78.5,49.3,29.96,East,98,2.0,8.0,36,0.00,,,0.01,WeatherCatV1.02B3,2013-08-31 12:36:00,
2013-08-31 08:41:00,78.7,49.5,29.96,East,98,0.0,5.0,36,0.00,,,0.01,WeatherCatV1.02B3,2013-08-31 12:41:00,
2013-08-31 08:46:00,78.8,49.6,29.96,East,98,0.0,2.0,36,0.00,,,0.01,WeatherCatV1.02B3,2013-08-31 12:46:00,
2013-08-31 08:51:00,79.0,49.7,29.96,East,98,5.0,5.0,36,0.00,,,0.01,WeatherCatV1.02B3,2013-08-31 12:51:00,
2013-08-31 08:56:00,79.2,49.9,29.96,East,98,0.0,5.0,36,0.00,,,0.01,WeatherCatV1.02B3,2013-08-31 12:56:00,
2013-08-31 09:01:00,79.4,49.3,29.96,East,98,2.0,10.0,35,0.00,,,0.01,WeatherCatV1.02B3,2013-08-31 13:01:00,
2013-08-31 09:06:00,79.6,49.5,29.96,East,98,2.0,5.0,35,0.00,,,0.01,WeatherCatV1.02B3,2013-08-31 13:06:00,
2013-08-31 09:11:00,79.8,50.4,29.97,East,98,0.0,4.0,36,0.00,,,0.01,WeatherCatV1.02B3,2013-08-31 13:11:00,
2013-08-31 09:17:00,79.9,50.5,29.96,East,98,3.0,8.0,36,0.00,,,0.01,WeatherCatV1.02B3,2013-08-31 13:17:00,
2013-08-31 09:22:00,80.1,50.7,29.97,East,98,1.0,6.0,36,0.00,,,0.01,WeatherCatV1.02B3,2013-08-31 13:22:00,
2013-08-31 09:27:00,80.4,51.0,29.97,East,98,1.0,5.0,36,0.00,,,0.01,WeatherCatV1.02B3,2013-08-31 13:27:00,
2013-08-31 09:32:00,80.7,51.2,29.96,East,98,4.0,8.0,36,0.00,,,0.01,WeatherCatV1.02B3,2013-08-31 13:32:00,
2013-08-31 09:37:00,80.9,51.4,29.97,East,98,4.0,6.0,36,0.00,,,0.01,WeatherCatV1.02B3,2013-08-31 13:37:00,
2013-08-31 09:42:00,81.1,51.6,29.97,East,98,4.0,7.0,36,0.00,,,0.01,WeatherCatV1.02B3,2013-08-31 13:42:00,
2013-08-31 09:47:00,81.4,52.6,29.97,East,98,2.0,6.0,37,0.00,,,0.01,WeatherCatV1.02B3,2013-08-31 13:47:00,
2013-08-31 09:52:00,81.7,53.6,29.97,East,98,3.0,7.0,38,0.00,,,0.01,WeatherCatV1.02B3,2013-08-31 13:52:00,
2013-08-31 09:57:00,82.0,54.6,29.97,East,98,0.0,5.0,39,0.00,,,0.01,WeatherCatV1.02B3,2013-08-31 13:57:00,
2013-08-31 10:02:00,82.5,55.7,29.97,East,98,2.0,5.0,40,0.00,,,0.01,WeatherCatV1.02B3,2013-08-31 14:02:00,
2013-08-31 10:07:00,83.3,58.4,29.97,East,98,3.0,6.0,43,0.00,,,0.01,WeatherCatV1.02B3,2013-08-31 14:07:00,
2013-08-31 10:12:00,84.0,63.9,29.97,East,98,4.0,5.0,51,0.00,,,0.01,WeatherCatV1.02B3,2013-08-31 14:12:00,
2013-08-31 10:17:00,84.4,66.4,29.97,East,98,6.0,6.0,55,0.00,,,0.01,WeatherCatV1.02B3,2013-08-31 14:17:00,
2013-08-31 10:22:00,84.6,67.7,29.97,ESE,121,5.0,11.0,57,0.00,,,0.01,WeatherCatV1.02B3,2013-08-31 14:22:00,
2013-08-31 10:27:00,84.8,67.8,29.97,ESE,123,5.0,8.0,57,0.00,,,0.01,WeatherCatV1.02B3,2013-08-31 14:27:00,
2013-08-31 10:32:00,85.5,68.0,29.98,ESE,107,4.0,10.0,56,0.00,,,0.01,WeatherCatV1.02B3,2013-08-31 14:32:00,
2013-08-31 10:37:00,85.7,69.7,29.98,East,97,0.0,9.0,59,0.00,,,0.01,WeatherCatV1.02B3,2013-08-31 14:37:00,
2013-08-31 10:42:00,86.0,70.5,29.98,East,100,2.0,7.0,60,0.00,,,0.01,WeatherCatV1.02B3,2013-08-31 14:42:00,
2013-08-31 10:47:00,86.3,70.2,29.98,East,101,6.0,7.0,59,0.00,,,0.01,WeatherCatV1.02B3,2013-08-31 14:47:00,
2013-08-31 10:52:00,86.8,71.7,29.98,ESE,104,2.0,5.0,61,0.00,,,0.01,WeatherCatV1.02B3,2013-08-31 14:52:00,
2013-08-31 10:57:00,87.6,72.0,29.98,East,90,6.0,9.0,60,0.00,,,0.01,WeatherCatV1.02B3,2013-08-31 14:57:00,
2013-08-31 11:02:00,87.8,73.1,29.98,ESE,110,7.0,12.0,62,0.00,,,0.01,WeatherCatV1.02B3,2013-08-31 15:02:00,
2013-08-31 11:07:00,87.9,73.2,29.98,East,88,9.0,9.0,62,0.00,,,0.01,WeatherCatV1.02B3,2013-08-31 15:07:00,
2013-08-31 11:12:00,88.5,73.8,29.98,ESE,115,1.0,9.0,62,0.00,,,0.01,WeatherCatV1.02B3,2013-08-31 15:12:00,
2013-08-31 11:17:00,89.4,74.6,29.98,East,87,5.0,7.0,62,0.00,,,0.01,WeatherCatV1.02B3,2013-08-31 15:17:00,
2013-08-31 11:22:00,89.6,75.3,29.98,East,90,3.0,7.0,63,0.00,,,0.01,WeatherCatV1.02B3,2013-08-31 15:22:00,
2013-08-31 11:27:00,89.9,76.1,29.98,East,91,2.0,6.0,64,0.00,,,0.01,WeatherCatV1.02B3,2013-08-31 15:27:00,
2013-08-31 11:32:00,89.9,76.1,29.97,East,79,0.0,7.0,64,0.00,,,0.01,WeatherCatV1.02B3,2013-08-31 15:32:00,
2013-08-31 11:37:00,90.1,76.2,29.97,ESE,122,4.0,8.0,64,0.00,,,0.01,WeatherCatV1.02B3,2013-08-31 15:37:00,
2013-08-31 11:42:00,90.3,76.4,29.97,ESE,122,0.0,0.0,64,0.00,,,0.01,WeatherCatV1.02B3,2013-08-31 15:42:00,
2013-08-31 11:47:00,90.7,77.3,29.97,ESE,104,9.0,12.0,65,0.00,,,0.01,WeatherCatV1.02B3,2013-08-31 15:47:00,
2013-08-31 11:52:00,90.3,76.9,29.97,ESE,110,6.0,13.0,65,0.00,,,0.01,WeatherCatV1.02B3,2013-08-31 15:52:00,
2013-08-31 11:57:00,89.1,75.8,29.97,East,101,2.0,4.0,65,0.00,,,0.01,WeatherCatV1.02B3,2013-08-31 15:57:00,
2013-08-31 12:02:00,88.8,74.5,29.97,East,101,4.0,5.0,63,0.00,,,0.01,WeatherCatV1.02B3,2013-08-31 16:02:00,
2013-08-31 12:07:00,89.7,75.9,29.97,East,101,5.0,9.0,64,0.00,,,0.01,WeatherCatV1.02B3,2013-08-31 16:07:00,
2013-08-31 12:12:00,90.7,77.3,29.96,East,89,4.0,10.0,65,0.00,,,0.01,WeatherCatV1.02B3,2013-08-31 16:12:00,
2013-08-31 12:17:00,91.5,78.0,29.97,East,92,5.0,11.0,65,0.00,,,0.01,WeatherCatV1.02B3,2013-08-31 16:17:00,
2013-08-31 12:22:00,91.6,78.1,29.97,ESE,119,5.0,5.0,65,0.00,,,0.01,WeatherCatV1.02B3,2013-08-31 16:22:00,
2013-08-31 12:27:00,91.6,77.7,29.96,SE,125,1.0,12.0,64,0.00,,,0.01,WeatherCatV1.02B3,2013-08-31 16:27:00,
2013-08-31 12:32:00,92.1,78.6,29.96,SE,130,6.0,10.0,65,0.00,,,0.01,WeatherCatV1.02B3,2013-08-31 16:32:00,
2013-08-31 12:37:00,92.0,78.0,29.96,East,92,3.0,11.0,64,0.00,,,0.01,WeatherCatV1.02B3,2013-08-31 16:37:00,
2013-08-31 12:42:00,92.4,78.4,29.95,ENE,69,0.0,2.0,64,0.00,,,0.01,WeatherCatV1.02B3,2013-08-31 16:42:00,
2013-08-31 12:47:00,92.8,77.8,29.95,SSE,157,1.0,8.0,62,0.00,,,0.01,WeatherCatV1.02B3,2013-08-31 16:47:00,
2013-08-31 12:52:00,93.2,78.7,29.95,SE,144,4.0,6.0,63,0.00,,,0.01,WeatherCatV1.02B3,2013-08-31 16:52:00,
2013-08-31 12:57:00,93.1,79.1,29.95,SE,129,1.0,9.0,64,0.00,,,0.01,WeatherCatV1.02B3,2013-08-31 16:57:00,
2013-08-31 13:02:00,93.5,79.4,29.95,SE,129,3.0,9.0,64,0.00,,,0.01,WeatherCatV1.02B3,2013-08-31 17:02:00,
2013-08-31 13:07:00,93.7,78.7,29.95,East,84,6.0,7.0,62,0.00,,,0.01,WeatherCatV1.02B3,2013-08-31 17:07:00,
2013-08-31 13:12:00,94.0,79.9,29.95,ESE,118,9.0,11.0,64,0.00,,,0.01,WeatherCatV1.02B3,2013-08-31 17:12:00,
2013-08-31 13:17:00,94.1,78.0,29.95,ESE,117,4.0,7.0,60,0.00,,,0.01,WeatherCatV1.02B3,2013-08-31 17:17:00,
2013-08-31 13:22:00,94.2,79.1,29.95,SSE,147,2.0,9.0,62,0.00,,,0.01,WeatherCatV1.02B3,2013-08-31 17:22:00,
2013-08-31 13:27:00,94.8,77.1,29.95,ESE,118,4.0,8.0,57,0.00,,,0.01,WeatherCatV1.02B3,2013-08-31 17:27:00,
2013-08-31 13:32:00,94.0,77.4,29.95,South,190,7.0,13.0,59,0.00,,,0.01,WeatherCatV1.02B3,2013-08-31 17:32:00,
2013-08-31 13:37:00,92.6,78.1,29.96,SSW,202,3.0,10.0,63,0.00,,,0.01,WeatherCatV1.02B3,2013-08-31 17:37:00,
2013-08-31 13:42:00,91.2,77.3,29.96,SSW,200,3.0,12.0,64,0.00,,,0.01,WeatherCatV1.02B3,2013-08-31 17:42:00,
2013-08-31 13:47:00,89.5,76.6,29.95,SW,229,6.0,11.0,66,0.00,,,0.01,WeatherCatV1.02B3,2013-08-31 17:47:00,
2013-08-31 13:52:00,89.8,77.3,29.95,SW,216,11.0,14.0,67,0.00,,,0.01,WeatherCatV1.02B3,2013-08-31 17:52:00,
2013-08-31 13:57:00,90.4,77.9,29.95,South,185,3.0,13.0,67,0.00,,,0.01,WeatherCatV1.02B3,2013-08-31 17:57:00,
2013-08-31 14:02:00,90.8,77.8,29.95,South,187,13.0,15.0,66,0.00,,,0.01,WeatherCatV1.02B3,2013-08-31 18:02:00,
2013-08-31 14:07:00,91.1,78.1,29.95,SSW,195,9.0,10.0,66,0.00,,,0.01,WeatherCatV1.02B3,2013-08-31 18:07:00,
2013-08-31 14:12:00,91.1,77.2,29.95,SW,219,5.0,13.0,64,0.00,,,0.01,WeatherCatV1.02B3,2013-08-31 18:12:00,
2013-08-31 14:17:00,90.7,77.3,29.95,South,180,2.0,12.0,65,0.00,,,0.01,WeatherCatV1.02B3,2013-08-31 18:17:00,
2013-08-31 14:22:00,90.8,78.3,29.95,South,188,9.0,14.0,67,0.00,,,0.01,WeatherCatV1.02B3,2013-08-31 18:22:00,
2013-08-31 14:27:00,91.1,77.7,29.94,South,185,9.0,13.0,65,0.00,,,0.01,WeatherCatV1.02B3,2013-08-31 18:27:00,
2013-08-31 14:32:00,91.0,78.0,29.94,SW,215,4.0,7.0,66,0.00,,,0.01,WeatherCatV1.02B3,2013-08-31 18:32:00,
2013-08-31 14:37:00,91.5,78.0,29.94,SW,235,6.0,12.0,65,0.00,,,0.01,WeatherCatV1.02B3,2013-08-31 18:37:00,
2013-08-31 14:42:00,91.3,78.3,29.94,SW,217,4.0,10.0,66,0.00,,,0.01,WeatherCatV1.02B3,2013-08-31 18:42:00,
2013-08-31 14:47:00,91.4,78.4,29.93,SSW,198,5.0,12.0,66,0.00,,,0.01,WeatherCatV1.02B3,2013-08-31 18:47:00,
2013-08-31 14:52:00,91.3,78.3,29.93,WSW,245,5.0,7.0,66,0.00,,,0.01,WeatherCatV1.02B3,2013-08-31 18:52:00,
2013-08-31 14:57:00,91.7,79.1,29.93,SW,216,4.0,10.0,67,0.00,,,0.01,WeatherCatV1.02B3,2013-08-31 18:57:00,
2013-08-31 15:02:00,91.8,79.2,29.93,SW,218,6.0,12.0,67,0.00,,,0.01,WeatherCatV1.02B3,2013-08-31 19:02:00,
2013-08-31 15:07:00,91.8,79.2,29.93,SW,225,0.0,6.0,67,0.00,,,0.01,WeatherCatV1.02B3,2013-08-31 19:07:00,
2013-08-31 15:12:00,92.5,79.9,29.92,South,177,3.0,5.0,67,0.00,,,0.01,WeatherCatV1.02B3,2013-08-31 19:12:00,
2013-08-31 15:17:00,92.6,79.5,29.92,South,174,3.0,3.0,66,0.00,,,0.01,WeatherCatV1.02B3,2013-08-31 19:17:00,
2013-08-31 15:22:00,92.7,78.7,29.92,South,186,3.0,7.0,64,0.00,,,0.01,WeatherCatV1.02B3,2013-08-31 19:22:00,
2013-08-31 15:27:00,92.5,78.5,29.92,SW,220,0.0,8.0,64,0.00,,,0.01,WeatherCatV1.02B3,2013-08-31 19:27:00,
2013-08-31 15:32:00,92.9,79.4,29.91,SSW,195,5.0,10.0,65,0.00,,,0.01,WeatherCatV1.02B3,2013-08-31 19:32:00,
2013-08-31 15:37:00,93.1,79.1,29.91,South,179,5.0,5.0,64,0.00,,,0.01,WeatherCatV1.02B3,2013-08-31 19:37:00,
2013-08-31 15:42:00,93.3,78.8,29.91,South,169,0.0,6.0,63,0.00,,,0.01,WeatherCatV1.02B3,2013-08-31 19:42:00,
2013-08-31 15:47:00,92.9,78.9,29.90,SE,146,3.0,6.0,64,0.00,,,0.01,WeatherCatV1.02B3,2013-08-31 19:47:00,
2013-08-31 15:52:00,92.7,78.7,29.90,SE,145,1.0,5.0,64,0.00,,,0.01,WeatherCatV1.02B3,2013-08-31 19:52:00,
2013-08-31 15:57:00,92.4,77.0,29.90,SSE,154,0.0,5.0,61,0.00,,,0.01,WeatherCatV1.02B3,2013-08-31 19:57:00,
2013-08-31 16:02:00,92.8,78.8,29.90,SE,133,2.0,5.0,64,0.00,,,0.01,WeatherCatV1.02B3,2013-08-31 20:02:00,
2013-08-31 16:07:00,93.1,77.1,29.89,South,183,1.0,3.0,60,0.00,,,0.01,WeatherCatV1.02B3,2013-08-31 20:07:00,
2013-08-31 16:12:00,93.4,78.9,29.89,SSW,195,4.0,6.0,63,0.00,,,0.01,WeatherCatV1.02B3,2013-08-31 20:12:00,
2013-08-31 16:17:00,93.5,78.0,29.89,SSW,207,0.0,1.0,61,0.00,,,0.01,WeatherCatV1.02B3,2013-08-31 20:17:00,
2013-08-31 16:22:00,93.7,78.2,29.89,SW,217,2.0,3.0,61,0.00,,,0.01,WeatherCatV1.02B3,2013-08-31 20:22:00,
2013-08-31 16:27:00,93.1,78.6,29.89,SSW,212,3.0,5.0,63,0.00,,,0.01,WeatherCatV1.02B3,2013-08-31 20:27:00,
2013-08-31 16:32:00,92.2,78.2,29.89,SSW,206,0.0,1.0,64,0.00,,,0.01,WeatherCatV1.02B3,2013-08-31 20:32:00,
2013-08-31 16:37:00,92.4,78.9,29.89,SSW,206,0.0,0.0,65,0.00,,,0.01,WeatherCatV1.02B3,2013-08-31 20:37:00,
2013-08-31 16:42:00,92.6,78.6,29.89,SW,218,0.0,1.0,64,0.00,,,0.01,WeatherCatV1.02B3,2013-08-31 20:42:00,
2013-08-31 16:47:00,93.1,77.6,29.89,South,179,0.0,5.0,61,0.00,,,0.01,WeatherCatV1.02B3,2013-08-31 20:47:00,
2013-08-31 16:52:00,93.3,77.8,29.89,South,175,0.0,5.0,61,0.00,,,0.01,WeatherCatV1.02B3,2013-08-31 20:52:00,
2013-08-31 16:57:00,93.6,79.1,29.89,South,177,2.0,7.0,63,0.00,,,0.01,WeatherCatV1.02B3,2013-08-31 20:57:00,
2013-08-31 17:02:00,93.9,76.8,29.89,SSW,200,0.0,8.0,58,0.00,,,0.01,WeatherCatV1.02B3,2013-08-31 21:02:00,
2013-08-31 17:07:00,93.9,76.8,29.89,SW,217,2.0,2.0,58,0.00,,,0.01,WeatherCatV1.02B3,2013-08-31 21:07:00,
2013-08-31 17:12:00,93.7,76.1,29.89,SSW,209,0.0,4.0,57,0.00,,,0.01,WeatherCatV1.02B3,2013-08-31 21:12:00,
2013-08-31 17:17:00,93.7,76.1,29.89,SSW,204,0.0,6.0,57,0.00,,,0.01,WeatherCatV1.02B3,2013-08-31 21:17:00,
2013-08-31 17:22:00,93.7,76.1,29.89,SSW,204,1.0,4.0,57,0.00,,,0.01,WeatherCatV1.02B3,2013-08-31 21:22:00,
2013-08-31 17:27:00,94.1,76.5,29.88,SSW,194,4.0,7.0,57,0.00,,,0.01,WeatherCatV1.02B3,2013-08-31 21:27:00,
2013-08-31 17:32:00,93.9,75.8,29.88,SSW,210,3.0,3.0,56,0.00,,,0.01,WeatherCatV1.02B3,2013-08-31 21:32:00,
2013-08-31 17:37:00,93.7,76.1,29.88,SSW,207,2.0,6.0,57,0.00,,,0.01,WeatherCatV1.02B3,2013-08-31 21:37:00,
2013-08-31 17:42:00,93.5,75.4,29.88,South,190,3.0,5.0,56,0.00,,,0.01,WeatherCatV1.02B3,2013-08-31 21:42:00,
2013-08-31 17:47:00,93.3,75.7,29.88,South,189,0.0,5.0,57,0.00,,,0.01,WeatherCatV1.02B3,2013-08-31 21:47:00,
2013-08-31 17:52:00,93.0,75.5,29.88,SSW,207,3.0,7.0,57,0.00,,,0.01,WeatherCatV1.02B3,2013-08-31 21:52:00,
2013-08-31 17:57:00,92.5,76.0,29.89,South,181,0.0,6.0,59,0.00,,,0.01,WeatherCatV1.02B3,2013-08-31 21:57:00,
2013-08-31 18:02:00,92.0,75.1,29.89,South,181,2.0,5.0,58,0.00,,,0.01,WeatherCatV1.02B3,2013-08-31 22:02:00,
2013-08-31 18:07:00,91.8,75.9,29.89,South,182,0.0,2.0,60,0.00,,,0.01,WeatherCatV1.02B3,2013-08-31 22:07:00,
2013-08-31 18:12:00,91.7,76.3,29.89,SE,144,7.0,15.0,61,0.00,,,0.01,WeatherCatV1.02B3,2013-08-31 22:12:00,
2013-08-31 18:17:00,90.9,77.0,29.89,SE,145,4.0,12.0,64,0.00,,,0.01,WeatherCatV1.02B3,2013-08-31 22:17:00,
2013-08-31 18:22:00,89.9,77.0,29.90,ESE,119,7.0,12.0,66,0.00,,,0.01,WeatherCatV1.02B3,2013-08-31 22:22:00,
2013-08-31 18:27:00,88.7,75.8,29.90,ESE,104,13.0,20.0,66,0.00,,,0.01,WeatherCatV1.02B3,2013-08-31 22:27:00,
2013-08-31 18:32:00,87.5,75.2,29.90,SSE,149,6.0,10.0,67,0.00,,,0.01,WeatherCatV1.02B3,2013-08-31 22:32:00,
2013-08-31 18:37:00,86.9,75.0,29.90,SE,137,9.0,9.0,68,0.00,,,0.01,WeatherCatV1.02B3,2013-08-31 22:37:00,
2013-08-31 18:42:00,86.3,74.5,29.90,SE,131,3.0,9.0,68,0.00,,,0.01,WeatherCatV1.02B3,2013-08-31 22:42:00,
2013-08-31 18:47:00,85.9,74.1,29.90,SE,144,6.0,6.0,68,0.00,,,0.01,WeatherCatV1.02B3,2013-08-31 22:47:00,
2013-08-31 18:52:00,85.5,73.7,29.89,SSE,162,0.0,6.0,68,0.00,,,0.01,WeatherCatV1.02B3,2013-08-31 22:52:00,
2013-08-31 18:57:00,85.2,73.4,29.89,South,187,4.0,7.0,68,0.00,,,0.01,WeatherCatV1.02B3,2013-08-31 22:57:00,
2013-08-31 19:02:00,85.0,73.2,29.90,SSW,209,6.0,6.0,68,0.00,,,0.01,WeatherCatV1.02B3,2013-08-31 23:02:00,
2013-08-31 19:07:00,84.8,73.0,29.91,SSW,198,0.0,4.0,68,0.00,,,0.01,WeatherCatV1.02B3,2013-08-31 23:07:00,
2013-08-31 19:12:00,84.7,72.9,29.91,SSW,198,3.0,3.0,68,0.00,,,0.01,WeatherCatV1.02B3,2013-08-31 23:12:00,
2013-08-31 19:17:00,84.4,72.7,29.91,WNW,294,3.0,5.0,68,0.00,,,0.01,WeatherCatV1.02B3,2013-08-31 23:17:00,
2013-08-31 19:22:00,84.4,72.2,29.91,NW,304,0.0,5.0,67,0.00,,,0.01,WeatherCatV1.02B3,2013-08-31 23:22:00,
2013-08-31 19:27:00,84.2,72.0,29.92,WSW,249,6.0,9.0,67,0.00,,,0.01,WeatherCatV1.02B3,2013-08-31 23:27:00,
2013-08-31 19:32:00,83.9,71.3,29.92,WSW,251,1.0,8.0,66,0.00,,,0.01,WeatherCatV1.02B3,2013-08-31 23:32:00,
2013-08-31 19:37:00,83.3,71.2,29.92,WSW,248,5.0,12.0,67,0.00,,,0.01,WeatherCatV1.02B3,2013-08-31 23:37:00,
2013-08-31 19:42:00,82.9,70.8,29.92,West,272,2.0,5.0,67,0.00,,,0.01,WeatherCatV1.02B3,2013-08-31 23:42:00,
2013-08-31 19:47:00,82.5,70.8,29.92,WNW,289,2.0,4.0,68,0.00,,,0.01,WeatherCatV1.02B3,2013-08-31 23:47:00,
2013-08-31 19:52:00,82.2,70.6,29.92,WNW,289,0.0,1.0,68,0.00,,,0.01,WeatherCatV1.02B3,2013-08-31 23:52:00,
2013-08-31 19:57:00,82.1,70.0,29.92,WNW,289,2.0,2.0,67,0.00,,,0.01,WeatherCatV1.02B3,2013-08-31 23:57:00,
2013-08-31 20:02:00,81.9,69.4,29.92,WNW,289,0.0,4.0,66,0.00,,,0.01,WeatherCatV1.02B3,2013-09-01 00:02:00,
2013-08-31 20:07:00,81.8,69.3,29.91,WNW,289,0.0,3.0,66,0.00,,,0.01,WeatherCatV1.02B3,2013-09-01 00:07:00,
2013-08-31 20:12:00,81.7,68.8,29.90,WNW,289,0.0,0.0,65,0.00,,,0.01,WeatherCatV1.02B3,2013-09-01 00:12:00,
2013-08-31 20:17:00,81.6,68.2,29.90,WNW,289,0.0,0.0,64,0.00,,,0.01,WeatherCatV1.02B3,2013-09-01 00:17:00,
2013-08-31 20:22:00,81.5,68.1,29.91,North,354,4.0,5.0,64,0.00,,,0.01,WeatherCatV1.02B3,2013-09-01 00:22:00,
2013-08-31 20:27:00,81.3,67.9,29.93,NNW,339,11.0,15.0,64,0.00,,,0.01,WeatherCatV1.02B3,2013-09-01 00:27:00,
2013-08-31 20:32:00,80.7,67.8,29.94,NNW,334,2.0,6.0,65,0.00,,,0.01,WeatherCatV1.02B3,2013-09-01 00:32:00,
2013-08-31 20:37:00,80.5,67.2,29.94,NW,326,0.0,3.0,64,0.00,,,0.01,WeatherCatV1.02B3,2013-09-01 00:37:00,
2013-08-31 20:42:00,80.3,67.0,29.94,NNW,336,4.0,5.0,64,0.00,,,0.01,WeatherCatV1.02B3,2013-09-01 00:42:00,
2013-08-31 20:47:00,80.1,66.3,29.94,NNW,335,2.0,13.0,63,0.00,,,0.01,WeatherCatV1.02B3,2013-09-01 00:47:00,
2013-08-31 20:52:00,80.0,65.3,29.94,NNW,333,5.0,8.0,61,0.00,,,0.01,WeatherCatV1.02B3,2013-09-01 00:52:00,
2013-08-31 20:57:00,80.2,63.6,29.95,NNW,328,2.0,9.0,57,0.00,,,0.01,WeatherCatV1.02B3,2013-09-01 00:57:00,
2013-08-31 21:02:00,80.3,62.1,29.95,NW,325,4.0,7.0,54,0.00,,,0.01,WeatherCatV1.02B3,2013-09-01 01:02:00,
2013-08-31 21:07:00,80.3,62.1,29.95,NW,326,2.0,4.0,54,0.00,,,0.01,WeatherCatV1.02B3,2013-09-01 01:07:00,
2013-08-31 21:12:00,80.3,61.6,29.95,NW,326,0.0,3.0,53,0.00,,,0.01,WeatherCatV1.02B3,2013-09-01 01:12:00,
2013-08-31 21:17:00,80.2,61.5,29.96,North,4,4.0,6.0,53,0.00,,,0.01,WeatherCatV1.02B3,2013-09-01 01:17:00,
2013-08-31 21:22:00,80.2,61.0,29.96,North,352,3.0,5.0,52,0.00,,,0.01,WeatherCatV1.02B3,2013-09-01 01:22:00,
2013-08-31 21:27:00,80.1,60.9,29.97,North,351,5.0,11.0,52,0.00,,,0.01,WeatherCatV1.02B3,2013-09-01 01:27:00,
2013-08-31 21:32:00,79.9,60.7,29.97,North,358,3.0,6.0,52,0.00,,,0.01,WeatherCatV1.02B3,2013-09-01 01:32:00,
2013-08-31 21:37:00,79.9,61.2,29.97,NNW,342,4.0,6.0,53,0.00,,,0.01,WeatherCatV1.02B3,2013-09-01 01:37:00,
2013-08-31 21:42:00,79.7,61.0,29.97,North,355,0.0,3.0,53,0.00,,,0.01,WeatherCatV1.02B3,2013-09-01 01:42:00,
2013-08-31 21:47:00,79.6,60.9,29.97,North,355,1.0,2.0,53,0.00,,,0.01,WeatherCatV1.02B3,2013-09-01 01:47:00,
2013-08-31 21:52:00,79.4,60.8,29.97,North,355,0.0,3.0,53,0.00,,,0.01,WeatherCatV1.02B3,2013-09-01 01:52:00,
2013-08-31 21:57:00,79.2,61.1,29.97,North,355,0.0,0.0,54,0.00,,,0.01,WeatherCatV1.02B3,2013-09-01 01:57:00,
2013-08-31 22:02:00,79.5,61.4,29.97,North,355,0.0,2.0,54,0.00,,,0.01,WeatherCatV1.02B3,2013-09-01 02:02:00,
2013-08-31 22:07:00,79.5,60.8,29.97,North,355,0.0,0.0,53,0.00,,,0.01,WeatherCatV1.02B3,2013-09-01 02:07:00,
2013-08-31 22:12:00,79.6,60.4,29.97,North,356,2.0,2.0,52,0.00,,,0.01,WeatherCatV1.02B3,2013-09-01 02:12:00,
2013-08-31 22:17:00,79.3,59.6,29.97,North,10,3.0,3.0,51,0.00,,,0.01,WeatherCatV1.02B3,2013-09-01 02:17:00,
2013-08-31 22:22:00,79.3,59.0,29.97,NNE,23,1.0,5.0,50,0.00,,,0.01,WeatherCatV1.02B3,2013-09-01 02:22:00,
2013-08-31 22:27:00,79.2,58.9,29.96,NE,38,4.0,6.0,50,0.00,,,0.01,WeatherCatV1.02B3,2013-09-01 02:27:00,
2013-08-31 22:32:00,79.2,58.4,29.96,East,81,5.0,7.0,49,0.00,,,0.01,WeatherCatV1.02B3,2013-09-01 02:32:00,
2013-08-31 22:37:00,79.4,58.0,29.96,East,81,6.0,9.0,48,0.00,,,0.01,WeatherCatV1.02B3,2013-09-01 02:37:00,
2013-08-31 22:42:00,79.3,57.9,29.96,ENE,69,4.0,6.0,48,0.00,,,0.01,WeatherCatV1.02B3,2013-09-01 02:42:00,
2013-08-31 22:47:00,79.4,57.4,29.96,NE,45,4.0,7.0,47,0.00,,,0.01,WeatherCatV1.02B3,2013-09-01 02:47:00,
2013-08-31 22:52:00,79.5,57.5,29.97,NE,54,6.0,6.0,47,0.00,,,0.01,WeatherCatV1.02B3,2013-09-01 02:52:00,
2013-08-31 22:57:00,79.5,57.5,29.97,NE,53,4.0,4.0,47,0.00,,,0.01,WeatherCatV1.02B3,2013-09-01 02:57:00,
2013-08-31 23:02:00,79.4,58.0,29.97,ENE,62,4.0,11.0,48,0.00,,,0.01,WeatherCatV1.02B3,2013-09-01 03:02:00,
2013-08-31 23:07:00,79.3,58.5,29.97,ENE,74,0.0,8.0,49,0.00,,,0.01,WeatherCatV1.02B3,2013-09-01 03:07:00,
2013-08-31 23:12:00,79.2,58.9,29.97,NE,53,0.0,4.0,50,0.00,,,0.01,WeatherCatV1.02B3,2013-09-01 03:12:00,
2013-08-31 23:17:00,79.1,59.9,29.98,ESE,106,6.0,12.0,52,0.00,,,0.01,WeatherCatV1.02B3,2013-09-01 03:17:00,
2013-08-31 23:22:00,79.0,60.9,29.98,ENE,77,4.0,6.0,54,0.00,,,0.01,WeatherCatV1.02B3,2013-09-01 03:22:00,
2013-08-31 23:27:00,78.9,60.8,29.97,ENE,67,3.0,4.0,54,0.00,,,0.01,WeatherCatV1.02B3,2013-09-01 03:27:00,
2013-08-31 23:32:00,78.9,60.8,29.97,ENE,69,4.0,4.0,54,0.00,,,0.01,WeatherCatV1.02B3,2013-09-01 03:32:00,
2013-08-31 23:37:00,78.9,60.8,29.98,ENE,69,0.0,4.0,54,0.00,,,0.01,WeatherCatV1.02B3,2013-09-01 03:37:00,
2013-08-31 23:42:00,78.9,60.8,29.97,ENE,69,3.0,6.0,54,0.00,,,0.01,WeatherCatV1.02B3,2013-09-01 03:42:00,
2013-08-31 23:47:00,78.8,61.2,29.97,ENE,60,1.0,5.0,55,0.00,,,0.01,WeatherCatV1.02B3,2013-09-01 03:47:00,
2013-08-31 23:52:00,78.7,61.2,29.97,ENE,57,6.0,6.0,55,0.00,,,0.01,WeatherCatV1.02B3,2013-09-01 03:52:00,
2013-08-31 23:57:00,78.7,61.2,29.97,NE,56,0.0,6.0,55,0.00,,,0.01,WeatherCatV1.02B3,2013-09-01 03:57:00,